Location: Berlise
(49.6641°N, 4.1077°E)
Time: 19:06:20
(UTC+00:00)

Cosmos 2297 - Pass Details

Date: 27 January 2021
Orbit: 834 x 860 km, 71.0° (Epoch: 27 February)

Event Time Altitude Azimuth Distance (km) Brightness Sun altitude
Exits shadow 05:50:13 17° 312° (NW) 2,046 5.2 -14.9°
Maximum altitude 05:54:07 38° 253° (WSW) 1,284 4.2 -14.3°
Drops below altitude 10° 05:59:21 10° 186° (S) 2,489 6.2 -13.4°
Sets 06:01:57 0° 179° (S) 3,419 7.0 -13.0°
